Time,TemperatureF,DewpointF,PressureIn,WindDirection,WindDirectionDegrees,WindSpeedMPH,WindSpeedGustMPH,Humidity,HourlyPrecipIn,Conditions,Clouds,dailyrainin,SoftwareType,DateUTC
2013-05-30 00:00:00,71.1,69.0,30.06,East,90,0.0,0.0,93,0.00,,,0.00,Wunderground v.1.15,2013-05-30 04:00:00,
2013-05-30 00:05:00,71.1,69.0,30.06,East,90,0.0,0.0,93,0.00,,,0.00,Wunderground v.1.15,2013-05-30 04:05:00,
2013-05-30 00:10:00,71.1,69.3,30.07,East,90,0.0,0.0,94,0.00,,,0.00,Wunderground v.1.15,2013-05-30 04:10:00,
2013-05-30 00:15:00,71.1,69.3,30.06,East,90,0.0,1.0,94,0.00,,,0.00,Wunderground v.1.15,2013-05-30 04:15:00,
2013-05-30 00:25:00,71.0,69.5,30.06,East,90,0.0,0.0,95,0.00,,,0.00,Wunderground v.1.15,2013-05-30 04:25:00,
2013-05-30 00:30:00,71.0,69.5,30.06,East,90,0.0,2.0,95,0.00,,,0.00,Wunderground v.1.15,2013-05-30 04:30:00,
2013-05-30 00:35:00,71.0,69.5,30.06,East,92,1.0,2.0,95,0.00,,,0.00,Wunderground v.1.15,2013-05-30 04:35:00,
2013-05-30 00:40:00,71.2,69.7,30.06,East,94,1.0,1.0,95,0.00,,,0.00,Wunderground v.1.15,2013-05-30 04:40:00,
2013-05-30 00:45:00,71.4,69.9,30.06,East,94,2.0,2.0,95,0.00,,,0.00,Wunderground v.1.15,2013-05-30 04:45:00,
2013-05-30 00:50:00,71.5,70.0,30.06,East,96,2.0,2.0,95,0.00,,,0.00,Wunderground v.1.15,2013-05-30 04:50:00,
2013-05-30 01:00:00,71.8,70.0,30.06,East,99,2.0,2.0,94,0.00,,,0.00,Wunderground v.1.15,2013-05-30 05:00:00,
2013-05-30 01:10:00,71.9,70.1,30.05,ESE,104,2.0,2.0,94,0.00,,,0.00,Wunderground v.1.15,2013-05-30 05:10:00,
2013-05-30 01:15:00,72.0,70.2,30.06,ESE,107,3.0,5.0,94,0.00,,,0.00,Wunderground v.1.15,2013-05-30 05:15:00,
2013-05-30 01:25:00,72.3,70.2,30.05,ESE,113,3.0,5.0,93,0.00,,,0.00,Wunderground v.1.15,2013-05-30 05:25:00,
2013-05-30 01:30:00,72.3,69.8,30.05,ESE,103,4.0,4.0,92,0.00,,,0.00,Wunderground v.1.15,2013-05-30 05:30:00,
2013-05-30 01:35:00,72.3,69.8,30.04,ESE,111,4.0,4.0,92,0.00,,,0.00,Wunderground v.1.15,2013-05-30 05:35:00,
2013-05-30 01:40:00,72.2,69.7,30.05,SE,131,3.0,5.0,92,0.00,,,0.00,Wunderground v.1.15,2013-05-30 05:40:00,
2013-05-30 01:45:00,72.2,69.7,30.05,SE,131,3.0,5.0,92,0.00,,,0.00,Wunderground v.1.15,2013-05-30 05:45:00,
2013-05-30 01:50:00,72.1,69.6,30.05,SE,132,2.0,4.0,92,0.00,,,0.00,Wunderground v.1.15,2013-05-30 05:50:00,
2013-05-30 01:55:00,72.1,69.6,30.05,SE,132,1.0,4.0,92,0.00,,,0.00,Wunderground v.1.15,2013-05-30 05:55:00,
2013-05-30 02:00:00,71.8,69.3,30.05,SE,132,0.0,0.0,92,0.00,,,0.00,Wunderground v.1.15,2013-05-30 06:00:00,
2013-05-30 02:10:00,71.5,69.4,30.04,SE,132,0.0,0.0,93,0.00,,,0.00,Wunderground v.1.15,2013-05-30 06:10:00,
2013-05-30 02:15:00,71.4,69.6,30.04,SE,132,0.0,0.0,94,0.00,,,0.00,Wunderground v.1.15,2013-05-30 06:15:00,
2013-05-30 02:20:00,71.4,69.6,30.03,SE,132,0.0,0.0,94,0.00,,,0.00,Wunderground v.1.15,2013-05-30 06:20:00,
2013-05-30 02:25:00,71.3,69.5,30.03,SE,132,0.0,0.0,94,0.00,,,0.00,Wunderground v.1.15,2013-05-30 06:25:00,
2013-05-30 02:30:00,71.2,69.4,30.03,SE,132,0.0,0.0,94,0.00,,,0.00,Wunderground v.1.15,2013-05-30 06:30:00,
2013-05-30 02:40:00,71.1,69.3,30.03,SE,132,0.0,0.0,94,0.00,,,0.00,Wunderground v.1.15,2013-05-30 06:40:00,
2013-05-30 02:45:00,71.1,69.3,30.03,SE,132,0.0,0.0,94,0.00,,,0.00,Wunderground v.1.15,2013-05-30 06:45:00,
2013-05-30 02:50:00,71.1,69.3,30.03,SE,132,0.0,0.0,94,0.00,,,0.00,Wunderground v.1.15,2013-05-30 06:50:00,
2013-05-30 02:55:00,71.0,69.5,30.03,SE,132,0.0,0.0,95,0.00,,,0.00,Wunderground v.1.15,2013-05-30 06:55:00,
2013-05-30 03:00:00,70.9,69.4,30.03,SE,132,0.0,0.0,95,0.00,,,0.00,Wunderground v.1.15,2013-05-30 07:00:00,
2013-05-30 03:10:00,70.8,69.3,30.03,SE,132,0.0,0.0,95,0.00,,,0.00,Wunderground v.1.15,2013-05-30 07:10:00,
2013-05-30 03:15:00,70.7,69.2,30.03,SE,132,0.0,0.0,95,0.00,,,0.00,Wunderground v.1.15,2013-05-30 07:15:00,
2013-05-30 03:20:00,70.7,69.2,30.03,SE,132,0.0,0.0,95,0.00,,,0.00,Wunderground v.1.15,2013-05-30 07:20:00,
2013-05-30 03:25:00,70.6,69.1,30.03,SE,132,0.0,0.0,95,0.00,,,0.00,Wunderground v.1.15,2013-05-30 07:25:00,
2013-05-30 03:30:00,70.6,69.1,30.04,SE,132,0.0,0.0,95,0.00,,,0.00,Wunderground v.1.15,2013-05-30 07:30:00,
2013-05-30 03:35:00,70.6,69.1,30.04,SE,132,0.0,0.0,95,0.00,,,0.00,Wunderground v.1.15,2013-05-30 07:35:00,
2013-05-30 03:40:00,70.5,69.0,30.03,SE,132,0.0,0.0,95,0.00,,,0.00,Wunderground v.1.15,2013-05-30 07:40:00,
2013-05-30 03:50:00,70.6,69.1,30.03,SE,132,0.0,0.0,95,0.00,,,0.00,Wunderground v.1.15,2013-05-30 07:50:00,
2013-05-30 03:55:00,70.6,69.1,30.03,SE,132,0.0,0.0,95,0.00,,,0.00,Wunderground v.1.15,2013-05-30 07:55:00,
2013-05-30 04:00:00,70.7,69.2,30.03,SE,132,0.0,2.0,95,0.00,,,0.00,Wunderground v.1.15,2013-05-30 08:00:00,
2013-05-30 04:10:00,70.8,69.3,30.03,SE,132,0.0,2.0,95,0.00,,,0.00,Wunderground v.1.15,2013-05-30 08:10:00,
2013-05-30 04:15:00,70.7,69.2,30.03,SE,132,0.0,2.0,95,0.00,,,0.00,Wunderground v.1.15,2013-05-30 08:15:00,
2013-05-30 04:25:00,70.6,69.1,30.03,SE,132,0.0,2.0,95,0.00,,,0.00,Wunderground v.1.15,2013-05-30 08:25:00,
2013-05-30 04:30:00,70.5,69.3,30.02,SE,132,0.0,2.0,96,0.00,,,0.00,Wunderground v.1.15,2013-05-30 08:30:00,
2013-05-30 04:35:00,70.4,69.2,30.02,SE,132,0.0,2.0,96,0.00,,,0.00,Wunderground v.1.15,2013-05-30 08:35:00,
2013-05-30 04:40:00,70.4,69.2,30.02,SE,132,0.0,2.0,96,0.00,,,0.00,Wunderground v.1.15,2013-05-30 08:40:00,
2013-05-30 04:50:00,70.3,69.1,30.02,SE,132,0.0,2.0,96,0.00,,,0.00,Wunderground v.1.15,2013-05-30 08:50:00,
2013-05-30 04:55:00,70.3,69.1,30.02,SE,132,0.0,2.0,96,0.00,,,0.00,Wunderground v.1.15,2013-05-30 08:55:00,
2013-05-30 05:00:00,70.3,69.1,30.02,SE,132,0.0,0.0,96,0.00,,,0.00,Wunderground v.1.15,2013-05-30 09:00:00,
2013-05-30 05:10:00,70.4,69.2,30.02,SE,132,0.0,0.0,96,0.00,,,0.00,Wunderground v.1.15,2013-05-30 09:10:00,
2013-05-30 05:15:00,70.4,69.2,30.02,SE,132,0.0,0.0,96,0.00,,,0.00,Wunderground v.1.15,2013-05-30 09:15:00,
2013-05-30 05:20:00,70.4,69.2,30.02,SE,132,0.0,0.0,96,0.00,,,0.00,Wunderground v.1.15,2013-05-30 09:20:00,
2013-05-30 05:30:00,70.4,69.2,30.03,SE,132,0.0,0.0,96,0.00,,,0.00,Wunderground v.1.15,2013-05-30 09:30:00,
2013-05-30 05:35:00,70.4,69.2,30.03,SE,132,0.0,0.0,96,0.00,,,0.00,Wunderground v.1.15,2013-05-30 09:35:00,
2013-05-30 05:40:00,70.4,69.2,30.03,SE,132,0.0,0.0,96,0.00,,,0.00,Wunderground v.1.15,2013-05-30 09:40:00,
2013-05-30 05:45:00,70.3,69.1,30.03,SE,132,0.0,0.0,96,0.00,,,0.00,Wunderground v.1.15,2013-05-30 09:45:00,
2013-05-30 05:50:00,70.3,69.1,30.03,SE,132,0.0,0.0,96,0.00,,,0.00,Wunderground v.1.15,2013-05-30 09:50:00,
2013-05-30 06:00:00,70.2,69.0,30.03,SE,132,0.0,0.0,96,0.00,,,0.00,Wunderground v.1.15,2013-05-30 10:00:00,
2013-05-30 06:10:00,70.1,68.9,30.02,SE,132,0.0,0.0,96,0.00,,,0.00,Wunderground v.1.15,2013-05-30 10:10:00,
2013-05-30 06:15:00,70.1,68.9,30.02,SE,132,0.0,0.0,96,0.00,,,0.00,Wunderground v.1.15,2013-05-30 10:15:00,
2013-05-30 06:20:00,70.1,68.9,30.03,SE,132,0.0,0.0,96,0.00,,,0.00,Wunderground v.1.15,2013-05-30 10:20:00,
2013-05-30 06:25:00,70.1,68.9,30.03,SE,132,0.0,0.0,96,0.00,,,0.00,Wunderground v.1.15,2013-05-30 10:25:00,
2013-05-30 06:35:00,70.1,68.9,30.03,SE,132,0.0,0.0,96,0.00,,,0.00,Wunderground v.1.15,2013-05-30 10:35:00,
2013-05-30 06:40:00,70.2,69.0,30.04,SE,132,0.0,0.0,96,0.00,,,0.00,Wunderground v.1.15,2013-05-30 10:40:00,
2013-05-30 06:45:00,70.2,69.0,30.04,SE,132,0.0,0.0,96,0.00,,,0.00,Wunderground v.1.15,2013-05-30 10:45:00,
2013-05-30 06:50:00,70.2,69.0,30.04,SE,132,0.0,0.0,96,0.00,,,0.00,Wunderground v.1.15,2013-05-30 10:50:00,
2013-05-30 06:55:00,70.4,69.2,30.04,SE,132,0.0,0.0,96,0.00,,,0.00,Wunderground v.1.15,2013-05-30 10:55:00,
2013-05-30 07:00:00,70.5,69.3,30.04,SE,132,0.0,0.0,96,0.00,,,0.00,Wunderground v.1.15,2013-05-30 11:00:00,
2013-05-30 07:10:00,70.7,69.5,30.05,SE,132,0.0,0.0,96,0.00,,,0.00,Wunderground v.1.15,2013-05-30 11:10:00,
2013-05-30 07:15:00,70.9,69.7,30.04,SE,132,0.0,0.0,96,0.00,,,0.00,Wunderground v.1.15,2013-05-30 11:15:00,
2013-05-30 07:20:00,71.0,69.8,30.04,SE,132,0.0,0.0,96,0.00,,,0.00,Wunderground v.1.15,2013-05-30 11:20:00,
2013-05-30 07:25:00,71.2,70.0,30.04,SE,132,0.0,0.0,96,0.00,,,0.00,Wunderground v.1.15,2013-05-30 11:25:00,
2013-05-30 07:30:00,71.5,70.0,30.05,SE,131,0.0,0.0,95,0.00,,,0.00,Wunderground v.1.15,2013-05-30 11:30:00,
2013-05-30 07:35:00,71.9,70.4,30.05,SE,131,0.0,0.0,95,0.00,,,0.00,Wunderground v.1.15,2013-05-30 11:35:00,
2013-05-30 07:45:00,72.8,71.0,30.05,SE,131,0.0,0.0,94,0.00,,,0.00,Wunderground v.1.15,2013-05-30 11:45:00,
2013-05-30 07:50:00,73.2,71.1,30.05,SE,130,0.0,4.0,93,0.00,,,0.00,Wunderground v.1.15,2013-05-30 11:50:00,
2013-05-30 07:55:00,73.5,71.4,30.06,SE,130,0.0,4.0,93,0.00,,,0.00,Wunderground v.1.15,2013-05-30 11:55:00,
2013-05-30 08:00:00,73.7,71.2,30.05,SE,130,1.0,1.0,92,0.00,,,0.00,Wunderground v.1.15,2013-05-30 12:00:00,
2013-05-30 08:10:00,74.4,71.9,30.05,SE,132,1.0,1.0,92,0.00,,,0.00,Wunderground v.1.15,2013-05-30 12:10:00,
2013-05-30 08:15:00,74.9,71.8,30.06,SE,125,1.0,6.0,90,0.00,,,0.00,Wunderground v.1.15,2013-05-30 12:15:00,
2013-05-30 08:20:00,75.3,71.8,30.05,SSE,148,2.0,2.0,89,0.00,,,0.00,Wunderground v.1.15,2013-05-30 12:20:00,
2013-05-30 08:25:00,75.6,72.1,30.05,East,101,2.0,2.0,89,0.00,,,0.00,Wunderground v.1.15,2013-05-30 12:25:00,
2013-05-30 08:30:00,76.0,72.2,30.06,SE,127,3.0,4.0,88,0.00,,,0.00,Wunderground v.1.15,2013-05-30 12:30:00,
2013-05-30 08:35:00,76.4,72.6,30.07,SE,128,2.0,4.0,88,0.00,,,0.00,Wunderground v.1.15,2013-05-30 12:35:00,
2013-05-30 08:40:00,76.8,72.3,30.06,ESE,113,3.0,5.0,86,0.00,,,0.00,Wunderground v.1.15,2013-05-30 12:40:00,
2013-05-30 08:50:00,77.5,72.6,30.07,ESE,115,3.0,3.0,85,0.00,,,0.00,Wunderground v.1.15,2013-05-30 12:50:00,
2013-05-30 08:55:00,78.1,72.9,30.07,SE,131,3.0,3.0,84,0.00,,,0.00,Wunderground v.1.15,2013-05-30 12:55:00,
2013-05-30 09:00:00,78.5,72.9,30.07,SE,126,3.0,7.0,83,0.00,,,0.00,Wunderground v.1.15,2013-05-30 13:00:00,
2013-05-30 09:10:00,79.2,73.2,30.06,ESE,111,5.0,9.0,82,0.00,,,0.00,Wunderground v.1.15,2013-05-30 13:10:00,
2013-05-30 09:15:00,79.3,72.6,30.07,ESE,103,6.0,12.0,80,0.00,,,0.00,Wunderground v.1.15,2013-05-30 13:15:00,
2013-05-30 09:20:00,79.5,73.2,30.07,ESE,119,6.0,7.0,81,0.00,,,0.00,Wunderground v.1.15,2013-05-30 13:20:00,
2013-05-30 09:25:00,79.8,73.4,30.07,SE,126,5.0,7.0,81,0.00,,,0.00,Wunderground v.1.15,2013-05-30 13:25:00,
2013-05-30 09:30:00,79.7,73.0,30.07,ESE,102,6.0,6.0,80,0.00,,,0.00,Wunderground v.1.15,2013-05-30 13:30:00,
2013-05-30 09:35:00,79.4,72.7,30.07,ENE,78,7.0,12.0,80,0.00,,,0.00,Wunderground v.1.15,2013-05-30 13:35:00,
2013-05-30 09:40:00,79.3,72.6,30.07,East,101,7.0,11.0,80,0.00,,,0.00,Wunderground v.1.15,2013-05-30 13:40:00,
2013-05-30 09:45:00,79.4,72.7,30.07,ENE,70,8.0,12.0,80,0.00,,,0.00,Wunderground v.1.15,2013-05-30 13:45:00,
2013-05-30 09:55:00,80.6,73.5,30.07,SE,140,7.0,8.0,79,0.00,,,0.00,Wunderground v.1.15,2013-05-30 13:55:00,
2013-05-30 10:00:00,80.6,73.1,30.06,ESE,110,6.0,6.0,78,0.00,,,0.00,Wunderground v.1.15,2013-05-30 14:00:00,
2013-05-30 10:10:00,81.3,73.4,30.05,ESE,115,7.0,9.0,77,0.00,,,0.00,Wunderground v.1.15,2013-05-30 14:10:00,
2013-05-30 10:15:00,81.8,72.7,30.06,East,88,7.0,9.0,74,0.00,,,0.00,Wunderground v.1.15,2013-05-30 14:15:00,
2013-05-30 10:20:00,81.9,73.2,30.06,East,88,9.0,15.0,75,0.00,,,0.00,Wunderground v.1.15,2013-05-30 14:20:00,
2013-05-30 10:30:00,82.0,72.5,30.06,ENE,77,10.0,10.0,73,0.00,,,0.00,Wunderground v.1.15,2013-05-30 14:30:00,
2013-05-30 10:35:00,82.2,73.5,30.05,ESE,107,8.0,11.0,75,0.00,,,0.00,Wunderground v.1.15,2013-05-30 14:35:00,
2013-05-30 10:40:00,82.4,73.7,30.05,ENE,74,6.0,6.0,75,0.00,,,0.00,Wunderground v.1.15,2013-05-30 14:40:00,
2013-05-30 10:45:00,82.4,73.7,30.05,ENE,74,5.0,9.0,75,0.00,,,0.00,Wunderground v.1.15,2013-05-30 14:45:00,
2013-05-30 10:50:00,82.1,73.4,30.05,East,88,6.0,6.0,75,0.00,,,0.00,Wunderground v.1.15,2013-05-30 14:50:00,
2013-05-30 11:00:00,82.9,73.8,30.05,ESE,112,4.0,9.0,74,0.00,,,0.00,Wunderground v.1.15,2013-05-30 15:00:00,
2013-05-30 11:10:00,82.7,73.6,30.05,ESE,119,6.0,9.0,74,0.00,,,0.00,Wunderground v.1.15,2013-05-30 15:10:00,
2013-05-30 11:20:00,83.2,73.2,30.05,ENE,64,7.0,9.0,72,0.00,,,0.00,Wunderground v.1.15,2013-05-30 15:20:00,
2013-05-30 11:25:00,83.6,73.6,30.05,East,84,7.0,9.0,72,0.00,,,0.00,Wunderground v.1.15,2013-05-30 15:25:00,
2013-05-30 11:30:00,83.6,73.2,30.04,ENE,65,7.0,7.0,71,0.00,,,0.00,Wunderground v.1.15,2013-05-30 15:30:00,
2013-05-30 11:40:00,84.3,73.0,30.04,NE,48,8.0,9.0,69,0.00,,,0.00,Wunderground v.1.15,2013-05-30 15:40:00,
2013-05-30 11:45:00,84.2,72.9,30.05,ENE,65,9.0,9.0,69,0.00,,,0.00,Wunderground v.1.15,2013-05-30 15:45:00,
2013-05-30 11:50:00,84.1,72.8,30.05,SE,137,8.0,8.0,69,0.00,,,0.00,Wunderground v.1.15,2013-05-30 15:50:00,
2013-05-30 12:00:00,84.9,72.3,30.05,East,80,8.0,15.0,66,0.00,,,0.00,Wunderground v.1.15,2013-05-30 16:00:00,
2013-05-30 12:10:00,85.1,73.3,30.05,ENE,64,7.0,7.0,68,0.00,,,0.00,Wunderground v.1.15,2013-05-30 16:10:00,
2013-05-30 12:15:00,85.5,72.8,30.05,East,101,7.0,9.0,66,0.00,,,0.00,Wunderground v.1.15,2013-05-30 16:15:00,
2013-05-30 12:25:00,85.4,72.3,30.05,ENE,72,10.0,15.0,65,0.00,,,0.00,Wunderground v.1.15,2013-05-30 16:25:00,
2013-05-30 12:30:00,84.8,72.2,30.05,East,99,10.0,15.0,66,0.00,,,0.00,Wunderground v.1.15,2013-05-30 16:30:00,
2013-05-30 12:35:00,84.6,71.5,30.05,ENE,71,10.0,15.0,65,0.00,,,0.00,Wunderground v.1.15,2013-05-30 16:35:00,
2013-05-30 12:45:00,85.9,71.8,30.04,SE,134,9.0,15.0,63,0.00,,,0.00,Wunderground v.1.15,2013-05-30 16:45:00,
2013-05-30 12:50:00,86.0,71.9,30.03,East,84,8.0,15.0,63,0.00,,,0.00,Wunderground v.1.15,2013-05-30 16:50:00,
2013-05-30 13:00:00,86.0,72.4,30.03,East,94,7.0,7.0,64,0.00,,,0.00,Wunderground v.1.15,2013-05-30 17:00:00,
2013-05-30 13:10:00,85.8,72.2,30.03,East,84,8.0,12.0,64,0.00,,,0.00,Wunderground v.1.15,2013-05-30 17:10:00,
2013-05-30 13:15:00,85.5,72.4,30.03,East,81,10.0,12.0,65,0.00,,,0.00,Wunderground v.1.15,2013-05-30 17:15:00,
2013-05-30 13:20:00,85.8,73.1,30.03,East,87,10.0,12.0,66,0.00,,,0.00,Wunderground v.1.15,2013-05-30 17:20:00,
2013-05-30 13:25:00,85.8,72.7,30.03,SE,134,10.0,18.0,65,0.00,,,0.00,Wunderground v.1.15,2013-05-30 17:25:00,
2013-05-30 13:35:00,85.6,73.8,30.03,NNE,32,11.0,13.0,68,0.00,,,0.00,Wunderground v.1.15,2013-05-30 17:35:00,
2013-05-30 13:40:00,84.7,73.4,30.03,NE,37,9.0,12.0,69,0.00,,,0.00,Wunderground v.1.15,2013-05-30 17:40:00,
2013-05-30 13:45:00,85.6,73.8,30.03,ENE,57,7.0,12.0,68,0.00,,,0.00,Wunderground v.1.15,2013-05-30 17:45:00,
2013-05-30 13:55:00,84.9,73.6,30.03,SE,128,5.0,6.0,69,0.00,,,0.00,Wunderground v.1.15,2013-05-30 17:55:00,
2013-05-30 14:00:00,84.2,73.8,30.02,East,89,6.0,12.0,71,0.00,,,0.00,Wunderground v.1.15,2013-05-30 18:00:00,
2013-05-30 14:10:00,84.1,74.1,30.03,ENE,67,8.0,8.0,72,0.00,,,0.00,Wunderground v.1.15,2013-05-30 18:10:00,
2013-05-30 14:20:00,84.6,73.3,30.02,NNE,27,8.0,8.0,69,0.00,,,0.00,Wunderground v.1.15,2013-05-30 18:20:00,
2013-05-30 14:25:00,85.5,73.3,30.02,NE,47,9.0,9.0,67,0.00,,,0.00,Wunderground v.1.15,2013-05-30 18:25:00,
2013-05-30 14:30:00,84.5,74.5,30.02,SSE,149,10.0,10.0,72,0.00,,,0.00,Wunderground v.1.15,2013-05-30 18:30:00,
2013-05-30 14:35:00,81.7,74.9,30.02,ESE,123,8.0,12.0,80,0.00,,,0.00,Wunderground v.1.15,2013-05-30 18:35:00,
2013-05-30 14:40:00,81.4,75.0,30.01,East,96,6.0,6.0,81,0.00,,,0.00,Wunderground v.1.15,2013-05-30 18:40:00,
2013-05-30 14:50:00,82.7,73.6,30.01,ESE,116,9.0,12.0,74,0.00,,,0.00,Wunderground v.1.15,2013-05-30 18:50:00,
2013-05-30 14:55:00,82.5,74.9,30.01,SE,138,8.0,12.0,78,0.00,,,0.00,Wunderground v.1.15,2013-05-30 18:55:00,
2013-05-30 15:00:00,82.6,74.7,30.01,ESE,123,4.0,4.0,77,0.00,,,0.00,Wunderground v.1.15,2013-05-30 19:00:00,
2013-05-30 15:10:00,82.9,72.9,30.01,SE,125,8.0,9.0,72,0.00,,,0.00,Wunderground v.1.15,2013-05-30 19:10:00,
2013-05-30 15:15:00,83.0,73.4,30.01,SE,144,7.0,10.0,73,0.00,,,0.00,Wunderground v.1.15,2013-05-30 19:15:00,
2013-05-30 15:20:00,82.4,74.1,30.01,SE,139,8.0,8.0,76,0.00,,,0.00,Wunderground v.1.15,2013-05-30 19:20:00,
2013-05-30 15:30:00,82.1,73.8,30.01,ESE,109,9.0,10.0,76,0.00,,,0.00,Wunderground v.1.15,2013-05-30 19:30:00,
2013-05-30 15:35:00,82.0,72.9,30.01,ESE,119,11.0,11.0,74,0.00,,,0.00,Wunderground v.1.15,2013-05-30 19:35:00,
2013-05-30 15:40:00,80.8,73.3,30.01,East,92,11.0,11.0,78,0.00,,,0.00,Wunderground v.1.15,2013-05-30 19:40:00,
2013-05-30 15:45:00,80.8,73.3,30.01,ENE,69,11.0,11.0,78,0.00,,,0.00,Wunderground v.1.15,2013-05-30 19:45:00,
2013-05-30 15:50:00,81.1,73.2,30.01,ENE,64,11.0,11.0,77,0.00,,,0.00,Wunderground v.1.15,2013-05-30 19:50:00,
2013-05-30 15:55:00,81.8,73.5,30.01,ENE,77,11.0,11.0,76,0.00,,,0.00,Wunderground v.1.15,2013-05-30 19:55:00,
2013-05-30 16:00:00,82.3,73.6,30.01,ENE,70,10.0,10.0,75,0.00,,,0.00,Wunderground v.1.15,2013-05-30 20:00:00,
2013-05-30 16:10:00,82.3,74.0,30.00,NE,46,8.0,8.0,76,0.00,,,0.00,Wunderground v.1.15,2013-05-30 20:10:00,
2013-05-30 16:15:00,82.7,74.0,30.00,East,89,6.0,14.0,75,0.00,,,0.00,Wunderground v.1.15,2013-05-30 20:15:00,
2013-05-30 16:20:00,82.9,73.8,30.00,ENE,76,6.0,14.0,74,0.00,,,0.00,Wunderground v.1.15,2013-05-30 20:20:00,
2013-05-30 16:25:00,83.4,73.4,29.99,ESE,119,7.0,14.0,72,0.00,,,0.00,Wunderground v.1.15,2013-05-30 20:25:00,
2013-05-30 16:30:00,83.6,74.0,29.99,SE,132,6.0,6.0,73,0.00,,,0.00,Wunderground v.1.15,2013-05-30 20:30:00,
2013-05-30 16:40:00,83.0,73.4,29.99,ESE,107,5.0,15.0,73,0.00,,,0.00,Wunderground v.1.15,2013-05-30 20:40:00,
2013-05-30 16:45:00,81.3,71.4,29.99,East,101,10.0,20.0,72,0.00,,,0.00,Wunderground v.1.15,2013-05-30 20:45:00,
2013-05-30 16:50:00,80.3,71.6,29.99,ESE,103,14.0,14.0,75,0.00,,,0.00,Wunderground v.1.15,2013-05-30 20:50:00,
2013-05-30 16:55:00,80.2,72.3,29.99,East,101,12.0,14.0,77,0.00,,,0.00,Wunderground v.1.15,2013-05-30 20:55:00,
2013-05-30 17:00:00,80.1,72.6,29.99,ENE,69,10.0,10.0,78,0.00,,,0.00,Wunderground v.1.15,2013-05-30 21:00:00,
2013-05-30 17:10:00,81.0,73.1,29.99,East,94,11.0,11.0,77,0.00,,,0.00,Wunderground v.1.15,2013-05-30 21:10:00,
2013-05-30 17:15:00,80.7,73.2,29.99,East,87,11.0,14.0,78,0.00,,,0.00,Wunderground v.1.15,2013-05-30 21:15:00,
2013-05-30 17:20:00,80.2,73.5,29.99,East,86,12.0,12.0,80,0.00,,,0.00,Wunderground v.1.15,2013-05-30 21:20:00,
2013-05-30 17:25:00,80.1,71.8,29.99,East,90,12.0,13.0,76,0.00,,,0.00,Wunderground v.1.15,2013-05-30 21:25:00,
2013-05-30 17:35:00,80.0,71.8,29.99,ESE,123,9.0,14.0,76,0.00,,,0.00,Wunderground v.1.15,2013-05-30 21:35:00,
2013-05-30 17:40:00,80.2,72.3,30.00,ENE,77,10.0,14.0,77,0.00,,,0.00,Wunderground v.1.15,2013-05-30 21:40:00,
2013-05-30 17:45:00,80.3,72.8,29.99,ESE,109,12.0,14.0,78,0.00,,,0.00,Wunderground v.1.15,2013-05-30 21:45:00,
2013-05-30 17:50:00,80.0,72.9,29.99,ENE,65,13.0,16.0,79,0.00,,,0.00,Wunderground v.1.15,2013-05-30 21:50:00,
2013-05-30 17:55:00,79.7,72.2,30.00,East,82,14.0,16.0,78,0.00,,,0.00,Wunderground v.1.15,2013-05-30 21:55:00,
2013-05-30 18:01:00,79.5,72.8,30.00,East,82,12.0,12.0,80,0.00,,,0.00,Wunderground v.1.15,2013-05-30 22:01:00,
2013-05-30 18:10:00,77.8,71.9,30.00,ENE,59,11.0,18.0,82,0.00,,,0.00,Wunderground v.1.15,2013-05-30 22:10:00,
2013-05-30 18:20:00,76.9,72.0,30.00,SE,125,10.0,10.0,85,0.00,,,0.00,Wunderground v.1.15,2013-05-30 22:20:00,
2013-05-30 18:25:00,76.9,72.7,30.00,SE,131,9.0,12.0,87,0.00,,,0.00,Wunderground v.1.15,2013-05-30 22:25:00,
2013-05-30 18:30:00,76.9,73.1,30.00,SE,140,9.0,14.0,88,0.00,,,0.00,Wunderground v.1.15,2013-05-30 22:30:00,
2013-05-30 18:35:00,76.7,73.2,30.00,SE,128,8.0,14.0,89,0.00,,,0.00,Wunderground v.1.15,2013-05-30 22:35:00,
2013-05-30 18:40:00,76.8,73.3,30.00,ESE,103,6.0,14.0,89,0.00,,,0.00,Wunderground v.1.15,2013-05-30 22:40:00,
2013-05-30 18:50:00,77.3,72.8,30.01,SE,137,8.0,14.0,86,0.00,,,0.00,Wunderground v.1.15,2013-05-30 22:50:00,
2013-05-30 18:55:00,77.4,72.9,30.01,ESE,106,10.0,14.0,86,0.00,,,0.00,Wunderground v.1.15,2013-05-30 22:55:00,
2013-05-30 19:00:00,77.4,72.9,30.01,ENE,68,10.0,12.0,86,0.00,,,0.00,Wunderground v.1.15,2013-05-30 23:00:00,
2013-05-30 19:10:00,77.5,73.0,30.01,East,88,9.0,9.0,86,0.00,,,0.00,Wunderground v.1.15,2013-05-30 23:10:00,
2013-05-30 19:15:00,77.6,72.7,30.01,East,84,8.0,9.0,85,0.00,,,0.00,Wunderground v.1.15,2013-05-30 23:15:00,
2013-05-30 19:25:00,77.6,72.7,30.02,NE,53,8.0,9.0,85,0.00,,,0.00,Wunderground v.1.15,2013-05-30 23:25:00,
2013-05-30 19:35:00,77.6,72.7,30.02,East,84,7.0,9.0,85,0.00,,,0.00,Wunderground v.1.15,2013-05-30 23:35:00,
2013-05-30 19:40:00,77.6,72.7,30.02,ESE,109,6.0,6.0,85,0.00,,,0.00,Wunderground v.1.15,2013-05-30 23:40:00,
2013-05-30 19:45:00,77.5,72.6,30.02,East,81,6.0,9.0,85,0.00,,,0.00,Wunderground v.1.15,2013-05-30 23:45:00,
2013-05-30 19:50:00,77.5,72.6,30.02,ENE,75,7.0,10.0,85,0.00,,,0.00,Wunderground v.1.15,2013-05-30 23:50:00,
2013-05-30 20:00:00,77.4,72.5,30.03,East,89,5.0,5.0,85,0.00,,,0.00,Wunderground v.1.15,2013-05-31 00:00:00,
2013-05-30 20:10:00,77.2,72.7,30.03,ENE,78,5.0,5.0,86,0.00,,,0.00,Wunderground v.1.15,2013-05-31 00:10:00,
2013-05-30 20:15:00,77.1,72.6,30.03,East,91,5.0,7.0,86,0.00,,,0.00,Wunderground v.1.15,2013-05-31 00:15:00,
2013-05-30 20:20:00,77.0,72.5,30.03,East,96,5.0,7.0,86,0.00,,,0.00,Wunderground v.1.15,2013-05-31 00:20:00,
2013-05-30 20:25:00,77.0,72.1,30.03,East,85,5.0,7.0,85,0.00,,,0.00,Wunderground v.1.15,2013-05-31 00:25:00,
2013-05-30 20:35:00,76.9,72.0,30.03,East,94,5.0,7.0,85,0.00,,,0.00,Wunderground v.1.15,2013-05-31 00:35:00,
2013-05-30 20:40:00,76.8,71.9,30.03,East,85,5.0,5.0,85,0.00,,,0.00,Wunderground v.1.15,2013-05-31 00:40:00,
2013-05-30 20:45:00,76.7,71.8,30.03,East,97,5.0,7.0,85,0.00,,,0.00,Wunderground v.1.15,2013-05-31 00:45:00,
2013-05-30 20:50:00,76.7,71.8,30.03,East,84,5.0,8.0,85,0.00,,,0.00,Wunderground v.1.15,2013-05-31 00:50:00,
2013-05-30 20:55:00,76.6,71.4,30.04,East,90,6.0,8.0,84,0.00,,,0.00,Wunderground v.1.15,2013-05-31 00:55:00,
2013-05-30 21:00:00,76.6,71.4,30.04,ENE,76,7.0,11.0,84,0.00,,,0.00,Wunderground v.1.15,2013-05-31 01:00:00,
2013-05-30 21:10:00,76.5,71.3,30.04,East,90,6.0,11.0,84,0.00,,,0.00,Wunderground v.1.15,2013-05-31 01:10:00,
2013-05-30 21:15:00,76.4,71.2,30.04,East,90,6.0,11.0,84,0.00,,,0.00,Wunderground v.1.15,2013-05-31 01:15:00,
2013-05-30 21:20:00,76.4,71.2,30.04,East,82,6.0,6.0,84,0.00,,,0.00,Wunderground v.1.15,2013-05-31 01:20:00,
2013-05-30 21:25:00,76.4,71.2,30.04,East,79,5.0,7.0,84,0.00,,,0.00,Wunderground v.1.15,2013-05-31 01:25:00,
2013-05-30 21:30:00,76.4,71.2,30.05,ENE,72,5.0,11.0,84,0.00,,,0.00,Wunderground v.1.15,2013-05-31 01:30:00,
2013-05-30 21:40:00,76.2,71.0,30.05,East,96,5.0,5.0,84,0.00,,,0.00,Wunderground v.1.15,2013-05-31 01:40:00,
2013-05-30 21:45:00,76.0,70.8,30.05,East,95,4.0,11.0,84,0.00,,,0.00,Wunderground v.1.15,2013-05-31 01:45:00,
2013-05-30 21:55:00,75.8,71.0,30.05,ESE,113,2.0,11.0,85,0.00,,,0.00,Wunderground v.1.15,2013-05-31 01:55:00,
2013-05-30 22:00:00,75.8,71.3,30.05,ESE,103,2.0,6.0,86,0.00,,,0.00,Wunderground v.1.15,2013-05-31 02:00:00,
2013-05-30 22:10:00,75.7,71.2,30.06,East,80,3.0,6.0,86,0.00,,,0.00,Wunderground v.1.15,2013-05-31 02:10:00,
2013-05-30 22:15:00,75.7,71.6,30.06,East,95,4.0,6.0,87,0.00,,,0.00,Wunderground v.1.15,2013-05-31 02:15:00,
2013-05-30 22:20:00,75.6,71.5,30.06,East,89,4.0,6.0,87,0.00,,,0.00,Wunderground v.1.15,2013-05-31 02:20:00,
2013-05-30 22:25:00,75.5,71.4,30.06,East,87,4.0,6.0,87,0.00,,,0.00,Wunderground v.1.15,2013-05-31 02:25:00,
2013-05-30 22:30:00,75.5,71.4,30.06,ENE,69,3.0,3.0,87,0.00,,,0.00,Wunderground v.1.15,2013-05-31 02:30:00,
2013-05-30 22:35:00,75.5,71.4,30.06,ESE,111,3.0,6.0,87,0.00,,,0.00,Wunderground v.1.15,2013-05-31 02:35:00,
2013-05-30 22:45:00,75.6,71.1,30.06,East,84,5.0,6.0,86,0.00,,,0.00,Wunderground v.1.15,2013-05-31 02:45:00,
2013-05-30 22:55:00,75.5,71.0,30.06,East,101,3.0,6.0,86,0.00,,,0.00,Wunderground v.1.15,2013-05-31 02:55:00,
2013-05-30 23:00:00,75.5,71.0,30.07,East,92,3.0,6.0,86,0.00,,,0.00,Wunderground v.1.15,2013-05-31 03:00:00,
2013-05-30 23:10:00,75.4,70.9,30.06,East,80,4.0,6.0,86,0.00,,,0.00,Wunderground v.1.15,2013-05-31 03:10:00,
2013-05-30 23:20:00,75.1,70.6,30.06,East,80,3.0,3.0,86,0.00,,,0.00,Wunderground v.1.15,2013-05-31 03:20:00,
2013-05-30 23:25:00,75.0,70.5,30.06,East,97,2.0,4.0,86,0.00,,,0.00,Wunderground v.1.15,2013-05-31 03:25:00,
2013-05-30 23:30:00,74.8,70.3,30.06,East,97,1.0,1.0,86,0.00,,,0.00,Wunderground v.1.15,2013-05-31 03:30:00,
2013-05-30 23:35:00,74.6,70.1,30.06,East,97,1.0,6.0,86,0.00,,,0.00,Wunderground v.1.15,2013-05-31 03:35:00,
2013-05-30 23:40:00,74.4,70.3,30.06,East,97,0.0,6.0,87,0.00,,,0.00,Wunderground v.1.15,2013-05-31 03:40:00,
2013-05-30 23:45:00,74.2,70.1,30.06,ESE,106,0.0,6.0,87,0.00,,,0.00,Wunderground v.1.15,2013-05-31 03:45:00,
2013-05-30 23:55:00,73.8,70.0,30.06,ESE,106,0.0,6.0,88,0.00,,,0.00,Wunderground v.1.15,2013-05-31 03:55:00,